Date,TemperatureHighF,TemperatureAvgF,TemperatureLowF,DewpointHighF,DewpointAvgF,DewpointLowF,HumidityHigh,HumidityAvg,HumidityLow,PressureMaxIn,PressureMinIn,WindSpeedMaxMPH,WindSpeedAvgMPH,GustSpeedMaxMPH,PrecipitationSumIn
2013-5-3,56.1,47.8,43.0,42.3,41.2,39.6,90,78,60,30.39,30.37,6,0,10,0.21
2013-5-4,63.9,51.9,41.5,46.8,41.3,35.6,98,70,38,30.37,30.26,13,2,15,0.00
2013-5-5,59.4,48.6,39.0,43.7,39.5,36.1,90,72,53,30.29,30.23,13,1,15,0.00
2013-5-6,63.1,53.1,47.5,50.2,45.8,43.3,91,77,56,30.26,30.16,8,1,12,0.00
2013-5-7,67.1,56.5,49.5,54.9,51.2,46.2,96,83,65,30.17,30.08,9,1,10,0.08
2013-5-8,77.2,62.0,55.0,61.2,55.7,49.8,94,81,50,30.09,29.95,9,1,12,0.93
2013-5-9,75.7,61.6,54.5,57.4,53.4,50.9,92,76,48,30.01,29.91,8,1,12,0.35
2013-5-10,85.1,67.9,52.7,59.0,54.6,49.5,94,66,33,30.01,29.89,9,1,10,0.00
2013-5-11,81.5,66.2,61.9,64.4,60.2,54.5,95,82,52,29.93,29.71,10,1,12,1.17
2013-5-12,70.2,61.2,50.2,63.3,41.9,17.2,95,55,15,29.97,29.68,17,2,22,0.06
2013-5-13,61.3,50.1,37.6,35.8,28.8,17.6,87,47,24,30.10,29.97,13,2,17,0.00
2013-5-14,65.3,50.3,37.2,36.1,27.7,13.1,78,48,14,30.13,30.04,10,1,12,0.00
2013-5-15,79.0,61.8,41.5,55.9,48.3,33.3,78,62,39,30.09,29.71,9,1,12,0.00
2013-5-16,83.8,68.2,56.1,59.9,53.7,46.0,91,63,33,29.86,29.71,7,0,7,0.01
2013-5-17,80.4,65.7,52.0,57.7,43.0,34.0,80,47,23,30.21,29.85,9,1,12,0.00
2013-5-18,68.0,58.0,49.8,53.8,49.9,43.7,89,75,58,30.31,30.21,7,0,7,0.05
2013-5-19,59.4,57.3,54.7,57.9,55.0,51.8,95,92,89,30.30,30.16,8,1,12,0.45
2013-5-20,85.5,68.0,59.0,66.0,61.9,57.6,95,82,51,30.17,29.98,6,0,7,0.01
2013-5-21,89.8,74.7,62.2,66.7,63.8,60.3,96,71,47,29.99,29.87,8,1,10,0.00
2013-5-22,92.7,74.5,65.5,68.9,65.2,-11.9,92,74,47,29.93,29.85,6,1,10,0.00
2013-5-23,84.4,73.2,66.0,68.9,63.5,61.2,89,73,53,29.92,29.78,10,2,12,0.18
2013-5-24,68.9,56.8,44.1,62.4,52.4,39.7,92,85,74,29.98,29.70,12,2,20,0.44
2013-5-25,62.1,51.2,43.3,44.6,39.2,-15.3,91,66,41,30.03,29.91,17,3,22,0.19
2013-5-26,73.6,57.9,46.0,41.5,35.4,23.7,77,46,17,30.21,30.00,14,2,20,0.00
2013-5-27,80.1,60.2,39.6,46.4,38.0,27.0,89,51,18,30.25,30.14,9,1,12,0.00
2013-5-28,70.0,59.5,-8.3,59.9,52.9,-8.9,98,80,49,30.23,30.11,6,0,10,0.59
2013-5-29,93.7,74.3,57.2,66.6,61.7,55.8,96,69,38,30.12,30.03,8,1,10,0.00
2013-5-30,98.8,81.9,69.4,66.0,63.3,59.0,77,55,33,30.16,30.08,7,1,10,0.00
2013-5-31,98.6,81.7,67.1,67.5,63.3,57.2,87,57,28,30.15,30.02,6,1,7,0.00
2013-6-1,95.2,80.3,66.9,69.1,63.6,-14.4,82,58,39,30.05,29.93,10,1,10,0.00
2013-6-2,91.8,78.2,68.9,68.7,64.2,61.2,85,64,45,29.95,29.82,11,2,12,0.74
2013-6-3,82.8,71.6,66.9,68.2,65.1,61.3,99,81,54,29.88,29.80,6,0,10,0.76
2013-6-4,80.2,66.2,56.3,65.7,53.7,49.6,97,66,39,30.11,29.88,8,1,12,0.00
2013-6-5,77.5,63.5,49.3,60.3,54.6,46.2,99,74,54,30.20,30.11,8,0,10,0.00
2013-6-6,75.7,63.9,54.5,63.7,59.3,54.0,99,86,53,30.14,30.00,10,1,15,0.04
2013-6-7,69.6,64.3,61.2,69.1,64.0,60.4,99,99,97,30.00,29.56,6,0,10,3.61
2013-6-8,81.7,68.0,57.7,68.5,63.3,57.6,99,86,68,30.07,29.54,8,1,12,0.53
2013-6-9,88.2,72.5,59.4,68.9,63.4,58.5,99,75,52,30.19,30.07,7,0,10,0.00
2013-6-10,70.9,67.7,62.4,70.3,66.4,61.5,99,96,82,30.17,29.83,7,0,7,2.78
2013-6-11,84.2,74.6,67.6,71.1,67.6,62.6,99,80,63,29.83,29.67,9,1,12,0.05
2013-6-12,86.0,72.7,61.0,64.4,61.3,58.3,92,69,50,29.87,29.75,14,2,17,0.00
2013-6-13,79.3,66.0,59.2,68.4,62.3,58.1,98,88,69,29.86,29.41,10,1,12,1.22
2013-6-14,79.5,61.6,54.0,63.0,56.7,52.7,98,85,58,29.92,29.48,11,1,15,0.12
2013-6-15,87.1,69.8,56.3,65.1,59.7,55.2,98,73,46,30.03,29.91,10,1,15,0.00
2013-6-16,86.0,71.9,59.0,70.0,63.4,57.4,96,76,56,30.02,29.82,13,1,15,0.00
2013-6-17,91.6,75.6,63.3,74.3,67.1,62.4,99,77,54,29.94,29.85,8,1,12,0.00
2013-6-18,82.0,68.5,62.8,69.8,64.3,59.9,98,87,67,29.92,29.81,9,0,12,1.29
2013-6-19,82.4,68.1,55.8,64.2,59.5,53.4,98,76,44,30.18,29.86,8,0,10,0.01
2013-6-20,84.2,68.1,53.4,66.9,58.2,53.1,99,73,51,30.29,30.17,6,0,10,0.00
2013-6-21,85.1,67.8,54.0,66.7,58.0,53.1,97,73,48,30.32,30.26,6,0,10,0.00
2013-6-22,85.3,70.8,54.1,69.1,61.3,53.4,98,74,51,30.28,30.15,7,0,10,0.00
2013-6-23,90.0,74.6,59.7,74.7,66.7,55.9,96,77,58,30.22,30.08,7,0,10,0.43
2013-6-24,93.0,78.3,70.0,76.5,70.5,63.9,97,78,57,30.10,29.98,10,1,15,0.01
2013-6-25,93.7,79.3,66.4,76.1,69.4,63.3,94,73,56,30.02,29.85,9,1,10,0.00
2013-6-26,95.0,80.0,70.5,76.1,69.5,63.3,94,72,54,29.88,29.79,9,1,12,0.37
2013-6-27,90.7,78.6,70.7,75.9,71.3,-8.9,96,80,59,29.84,29.60,12,1,15,0.06
2013-6-28,91.9,77.8,69.8,73.8,69.5,65.7,88,76,56,29.61,29.50,6,1,7,0.05
2013-6-29,90.1,75.6,65.3,75.0,68.7,64.4,98,80,59,29.73,29.51,6,0,7,0.02
2013-6-30,87.8,75.5,67.6,74.7,70.0,65.8,95,84,67,29.92,29.72,5,0,7,0.07
2013-7-1,88.3,75.8,72.3,74.5,70.7,68.2,89,84,64,30.06,29.90,6,0,10,0.17
2013-7-2,89.4,77.4,72.3,75.4,71.0,67.6,93,81,64,30.21,30.05,6,1,12,0.13
2013-7-8,91.8,77.5,70.5,78.8,71.6,67.6,96,83,64,30.08,30.01,6,1,10,0.09
2013-7-9,91.2,79.2,68.0,78.1,73.0,67.6,99,82,67,30.09,30.00,6,0,7,0.00
2013-7-10,89.6,79.9,70.9,78.6,74.8,70.7,99,85,69,30.04,29.84,8,1,10,0.17
2013-7-11,83.8,77.1,73.8,75.6,73.3,71.4,98,88,76,29.90,29.83,6,0,7,0.21
2013-7-12,70.9,69.9,69.1,70.7,69.5,68.5,99,98,98,30.07,30.05,6,1,10,0.76
2013-7-13,90.7,78.3,70.9,79.7,74.4,70.7,99,88,72,30.30,30.06,10,0,12,0.01
2013-7-14,96.4,81.8,73.4,82.2,75.6,72.9,99,82,64,30.35,30.26,7,0,7,0.00
2013-7-15,98.6,84.5,72.9,82.6,76.7,72.0,99,79,61,30.28,30.14,7,1,10,0.00
2013-7-16,99.0,84.1,73.6,81.1,75.3,71.1,95,76,56,30.20,30.14,7,0,10,0.00
2013-7-17,99.9,84.4,72.0,83.5,75.9,70.0,95,77,60,30.20,30.09,6,0,7,0.00
2013-7-18,102.6,86.9,74.8,85.3,77.6,70.7,88,75,59,30.10,29.97,7,0,10,0.00
2013-7-19,99.7,88.1,78.8,84.4,79.3,75.0,92,76,62,30.00,29.83,8,2,12,0.00
2013-7-20,97.9,85.6,77.9,82.6,76.9,-8.7,85,76,63,29.85,29.75,10,2,12,0.00
2013-7-24,87.3,77.4,70.0,75.4,70.2,62.4,96,79,68,29.92,29.64,10,1,15,0.00
2013-7-25,70.5,66.5,63.9,63.0,61.4,59.9,93,84,76,30.04,29.91,9,1,12,0.00
2013-7-26,84.0,72.2,64.4,72.7,66.3,61.5,96,82,64,30.07,29.99,6,0,10,0.00
2013-7-27,87.3,73.3,60.8,75.0,67.7,60.6,99,84,65,30.07,29.97,9,0,15,0.00
2013-7-28,85.1,72.2,61.2,74.7,68.8,60.8,99,89,72,30.00,29.92,8,0,10,0.12
2013-7-29,84.7,72.9,66.9,73.6,69.8,66.6,99,91,69,30.05,29.96,4,0,5,0.04
2013-8-1,68.5,67.3,66.2,66.2,65.1,64.6,95,93,88,29.99,29.98,0,0,0,0.00
2013-8-6,69.1,68.7,68.4,66.6,66.0,65.3,93,91,90,30.14,30.13,0,0,0,0.00
2013-8-7,82.0,72.5,66.4,72.3,68.6,65.5,98,88,73,30.15,30.08,8,0,10,0.00
2013-8-8,86.4,75.8,70.5,78.3,73.0,69.4,99,91,78,30.09,30.01,6,0,7,0.56
2013-8-9,87.3,78.7,73.4,78.8,75.5,72.5,99,90,76,30.04,29.83,9,1,12,0.05
2013-8-10,86.9,76.2,67.6,75.6,71.4,67.1,99,86,66,30.05,29.88,7,0,10,0.00
2013-8-11,85.1,72.7,62.2,72.7,66.6,60.4,99,82,63,30.14,30.04,7,0,10,0.00
2013-8-12,83.8,73.1,65.8,76.3,70.3,65.5,99,91,77,30.05,29.94,6,0,7,0.00
2013-8-13,80.1,70.9,66.0,74.5,70.2,65.8,99,97,84,29.95,29.72,7,0,10,1.58
2013-8-14,77.4,67.5,57.9,71.2,60.8,56.5,99,80,65,30.06,29.75,10,1,15,0.00
2013-8-15,83.3,64.3,54.0,64.2,58.8,53.8,99,84,49,30.16,30.06,6,0,7,0.00
2013-8-16,82.4,67.3,54.0,66.9,60.9,53.8,99,82,56,30.22,30.13,8,0,10,0.00
2013-8-17,81.5,67.5,53.4,70.0,62.2,53.2,99,85,61,30.28,30.21,6,0,7,0.00
2013-8-18,77.9,67.3,59.9,69.8,64.4,59.7,99,91,69,30.27,30.14,7,0,7,0.02
2013-8-19,79.7,68.8,59.0,71.1,65.1,58.6,99,89,71,30.16,30.06,5,0,7,0.00
2013-8-20,90.5,74.6,62.1,77.4,70.2,61.9,99,87,65,30.15,30.07,6,0,7,0.00
2013-8-21,93.6,77.5,65.3,76.3,71.4,65.1,99,83,57,30.19,30.08,6,0,7,0.00
2013-8-22,83.7,73.9,69.6,76.8,72.1,68.9,99,94,80,30.09,29.90,6,0,10,0.24
2013-8-23,82.0,72.3,61.7,72.5,68.4,61.5,99,88,62,30.09,29.89,6,0,7,0.00
2013-8-24,81.1,68.3,56.7,67.5,63.0,56.3,99,84,59,30.35,30.09,9,1,12,0.00
2013-8-25,86.9,67.9,52.5,67.5,60.7,52.3,99,80,51,30.41,30.27,7,0,10,0.00
2013-8-26,87.3,72.7,62.4,74.7,66.8,59.5,96,82,65,30.28,29.95,8,1,12,0.00
2013-8-27,91.8,77.1,69.1,76.6,71.9,68.7,99,85,63,29.94,29.85,9,1,12,0.05
2013-8-28,84.4,72.5,65.8,78.1,71.5,65.5,99,97,78,29.91,29.85,2,0,2,0.08
2013-8-29,81.9,71.5,65.8,73.8,69.9,65.7,99,95,77,30.05,29.88,8,0,10,0.00
2013-8-30,85.6,74.1,67.3,76.8,71.2,67.1,99,91,74,30.04,29.89,8,1,10,0.00
2013-8-31,92.1,78.0,69.6,80.6,74.2,69.3,99,89,70,29.91,29.80,7,1,10,0.00
2013-9-1,91.0,76.6,70.7,79.7,74.3,70.5,99,93,68,29.87,29.80,7,0,10,0.54
2013-9-2,81.3,74.6,69.3,77.9,74.2,69.1,99,98,88,29.82,29.73,4,0,5,0.17
2013-9-3,85.6,73.1,64.8,77.9,70.4,63.7,99,92,70,29.91,29.73,8,1,10,0.00
2013-9-4,83.1,69.6,59.4,68.9,64.2,59.2,99,84,62,30.03,29.90,9,1,12,0.00
2013-9-5,83.3,67.8,54.0,69.6,59.2,53.1,99,75,60,30.14,29.99,8,1,10,0.00
2013-9-6,77.0,60.2,49.1,61.0,54.6,48.9,99,83,52,30.26,30.14,8,0,12,0.00
2013-9-7,83.8,62.4,44.6,66.6,56.5,44.4,99,83,48,30.15,29.93,6,0,10,0.00
2013-9-8,83.7,71.5,58.5,73.4,65.5,54.3,99,82,65,30.08,29.84,10,1,15,0.00
2013-9-9,76.3,64.1,52.2,64.8,59.5,-8.7,99,86,68,30.24,30.08,9,0,12,0.00
2013-9-10,90.9,76.3,63.9,80.4,73.0,63.5,99,90,72,30.20,30.07,8,1,10,0.00
2013-9-11,98.8,82.2,72.1,83.3,76.8,72.0,99,85,63,30.14,30.00,6,1,7,0.00
2013-9-12,89.6,76.5,69.3,81.1,74.1,69.1,99,93,72,30.02,29.72,8,1,12,0.47
2013-9-13,79.7,69.0,59.2,72.3,65.5,55.4,99,89,67,29.87,29.66,11,1,15,0.19
2013-9-14,68.9,58.4,49.3,58.8,54.2,49.1,99,87,69,30.14,29.87,10,1,15,0.00
2013-9-15,75.4,58.7,43.5,61.9,53.9,43.3,99,86,59,30.22,30.10,7,0,7,0.00
2013-9-16,72.3,61.0,54.0,65.1,59.6,53.8,99,95,74,30.22,30.04,6,0,10,0.04
2013-9-17,66.4,54.5,43.2,56.7,49.0,42.8,99,83,59,30.42,30.22,9,1,15,0.00
2013-9-18,73.2,55.4,41.7,61.0,51.1,41.4,99,87,62,30.36,30.21,6,0,10,0.00
2013-9-19,80.1,59.0,44.8,64.4,55.1,44.4,99,88,58,30.21,30.09,7,0,10,0.00
2013-9-20,79.0,62.3,48.0,68.4,58.8,47.7,99,89,66,30.10,30.02,10,0,15,0.00
2013-9-21,80.2,65.8,49.1,72.7,63.5,48.9,99,93,67,30.03,29.70,9,1,15,0.06
2013-9-22,72.1,63.7,53.1,69.1,59.0,49.1,99,85,62,29.92,29.67,10,1,15,0.43
2013-9-23,68.5,55.6,45.0,55.4,50.3,-8.7,99,84,64,30.05,29.92,10,1,15,0.00
2013-9-24,71.4,55.2,43.2,59.4,51.4,42.8,99,88,63,30.06,29.90,8,1,10,0.00
2013-9-25,74.5,57.4,43.7,61.5,53.2,43.2,99,87,56,29.96,29.89,5,0,7,0.00
2013-9-26,73.2,57.3,45.5,65.8,55.6,45.1,99,94,76,30.10,29.94,7,0,10,0.00
2013-9-27,71.6,60.0,50.4,64.0,57.9,50.0,99,93,74,30.27,30.10,6,0,10,0.00
2013-9-28,72.5,61.4,50.9,63.9,58.2,50.7,99,90,70,30.32,30.24,9,0,15,0.00
2013-9-29,72.3,57.8,48.6,65.8,55.4,48.2,99,92,75,30.24,30.08,9,0,12,0.00
2013-9-30,72.1,57.6,46.4,64.6,55.2,46.0,99,92,68,30.08,29.99,6,0,10,0.00
2013-10-1,81.3,64.1,51.6,69.1,60.7,51.3,99,90,67,30.02,29.93,6,0,10,0.00
2013-10-2,83.1,68.5,55.8,70.7,64.5,55.4,99,88,66,30.03,29.94,9,1,12,0.00
2013-10-3,79.2,67.0,57.4,68.9,63.3,57.2,99,89,68,30.13,30.03,6,0,7,0.00
2013-10-4,86.0,70.1,55.8,73.9,66.2,55.6,99,89,67,30.08,29.99,6,0,7,0.00
2013-10-5,76.5,67.5,62.2,72.5,66.8,62.1,99,97,88,30.11,30.02,6,0,7,0.00
2013-10-6,75.4,68.0,64.4,74.1,67.8,64.2,99,99,95,30.10,30.02,7,0,10,0.00
2013-10-7,79.2,68.0,59.0,76.3,67.3,58.6,99,97,87,30.03,29.81,13,1,17,0.17
2013-10-8,66.9,57.0,50.7,58.8,53.9,50.4,99,90,66,30.31,30.02,7,0,12,0.00
2013-10-9,62.8,58.5,52.0,58.3,55.6,50.4,99,90,80,30.35,30.24,11,2,15,0.00
2013-10-10,61.7,58.8,54.7,61.5,58.3,54.5,99,98,89,30.25,30.03,10,1,15,0.34
2013-10-11,64.0,61.8,59.5,63.9,61.7,59.4,99,99,99,30.06,29.97,11,2,17,0.56
2013-10-12,68.7,62.9,59.9,63.3,60.4,55.8,99,92,76,30.25,30.04,14,2,17,0.01
2013-10-13,66.2,59.4,54.0,60.8,57.8,53.2,99,95,82,30.37,30.24,13,2,17,0.00
2013-10-14,68.2,55.0,46.4,62.1,53.2,45.9,99,94,81,30.35,30.26,6,0,10,0.00
2013-10-15,68.7,54.5,44.1,63.7,51.8,43.7,99,91,63,30.26,30.11,7,0,10,0.00
2013-10-16,69.4,60.4,49.8,66.4,59.9,49.6,99,98,88,30.11,29.94,4,0,5,0.00
2013-10-17,74.7,64.6,60.1,70.2,63.9,59.9,99,98,86,29.94,29.72,5,0,7,0.00
2013-10-18,67.1,59.9,45.1,65.3,54.5,-8.7,99,83,67,30.01,29.72,13,2,17,0.00
2013-10-19,65.1,52.5,38.7,58.6,50.7,38.5,99,94,78,30.01,29.78,6,0,7,0.01
2013-10-20,62.4,52.6,39.9,57.4,47.9,-8.7,99,85,56,30.09,29.78,10,1,12,0.00
2013-10-21,68.9,50.6,36.0,52.5,45.3,35.6,99,84,54,30.16,30.00,6,0,7,0.00
2013-10-22,69.4,52.7,40.5,59.4,49.5,40.1,99,90,67,30.00,29.77,9,1,12,0.00
2013-10-23,53.8,47.0,38.5,51.8,45.9,-8.7,99,96,82,29.82,29.60,10,0,15,0.05
2013-10-24,54.0,43.5,-8.3,43.9,38.4,-11.2,99,83,57,30.04,29.78,11,1,15,0.00
2013-10-25,54.7,42.4,33.6,43.7,37.8,32.4,99,85,62,30.26,30.04,12,1,17,0.00
2013-10-26,56.5,44.2,27.9,44.2,38.4,27.5,99,82,54,30.24,29.92,12,2,15,0.00
2013-10-27,58.5,47.7,35.8,44.8,41.2,34.2,99,79,59,30.14,29.88,11,1,15,0.00
2013-10-28,62.1,44.9,29.5,49.1,40.1,29.1,99,85,60,30.30,30.13,9,0,10,0.00
2013-10-29,58.8,46.2,37.0,52.2,44.0,36.7,99,92,77,30.39,30.29,6,0,7,0.00
2013-10-30,58.3,47.3,36.5,58.1,47.1,36.1,99,99,99,30.35,30.19,3,0,5,0.04
2013-10-31,70.7,61.0,50.9,66.7,59.6,50.7,99,95,85,30.23,29.84,8,1,10,0.02
2013-11-1,70.3,64.2,56.8,68.2,63.4,56.5,99,97,82,29.83,29.59,12,2,15,0.21
2013-11-2,69.6,58.9,50.7,62.6,54.4,46.9,99,86,59,29.79,29.63,8,0,10,0.00
2013-11-3,52.5,45.8,34.0,47.1,40.1,-11.0,99,81,56,30.44,29.79,10,1,15,0.01
2013-11-4,46.0,36.8,28.6,34.7,30.1,22.8,95,77,56,30.64,30.43,10,0,12,0.00
2013-11-5,59.0,44.6,32.2,50.5,42.0,32.0,99,91,73,30.63,30.47,8,0,10,0.00
2013-11-6,63.9,50.6,31.8,58.6,48.0,31.6,99,91,73,30.49,30.08,5,0,7,0.00
2013-11-7,65.5,55.6,35.4,64.6,54.8,34.9,99,97,84,30.08,29.78,12,2,17,0.09
2013-11-8,50.7,42.3,30.7,41.2,35.8,29.5,99,78,59,30.24,29.96,14,2,20,0.00
2013-11-9,52.9,41.7,29.7,39.7,34.8,29.1,99,78,53,30.31,30.01,7,1,10,0.00
2013-11-10,62.8,49.9,37.0,45.9,39.8,35.1,99,70,48,30.09,29.84,20,3,28,0.00
2013-11-11,57.7,48.3,35.8,43.0,37.7,29.3,80,67,50,30.24,29.98,14,2,17,0.00
2013-11-12,50.5,38.4,28.2,43.7,31.7,20.1,99,77,60,30.30,29.93,12,2,20,0.02
2013-11-13,41.2,30.5,22.3,25.2,19.6,15.6,84,65,42,30.38,30.28,12,1,17,0.00
2013-11-14,56.3,41.1,27.7,32.2,25.6,21.4,85,57,35,30.30,30.19,12,2,15,0.00
2013-11-15,61.2,43.2,28.9,42.3,36.7,28.6,99,80,44,30.27,30.17,5,0,7,0.00
2013-11-16,55.9,45.7,37.4,53.4,44.7,36.3,99,96,88,30.35,30.24,4,0,5,0.08
2013-11-17,68.0,55.9,45.5,65.8,55.7,45.3,99,99,92,30.27,29.80,5,0,7,0.00
2013-11-18,68.2,59.9,48.4,63.7,50.3,38.1,99,73,41,29.81,29.64,13,2,20,0.15
2013-11-19,50.7,43.6,28.6,38.5,34.0,26.2,92,69,59,30.35,29.81,18,3,25,0.00
2013-11-20,47.1,33.3,23.2,33.3,24.8,19.2,97,73,38,30.59,30.35,10,0,12,0.00
2013-11-21,54.5,42.9,28.0,48.0,40.0,22.6,99,89,75,30.59,30.39,9,0,12,0.00
2013-11-22,59.7,51.4,43.2,56.1,50.9,43.0,99,98,87,30.39,29.92,10,1,12,0.00
2013-11-23,53.1,43.2,30.9,52.9,34.3,-10.8,99,72,51,30.04,29.92,19,3,22,0.00
2013-11-24,31.1,25.5,19.8,19.4,6.7,3.7,65,44,39,30.42,30.02,22,4,30,0.00
2013-11-25,37.6,27.2,17.2,23.4,16.0,6.4,82,63,44,30.51,30.35,10,1,12,0.00
2013-11-26,54.9,38.7,30.9,54.5,34.6,23.4,99,86,59,30.36,29.72,13,1,17,0.71
2013-11-27,63.1,47.3,33.4,63.0,46.4,26.1,99,96,74,29.79,29.36,15,4,20,1.37
2013-11-28,37.6,31.0,22.1,27.5,20.9,14.9,89,67,42,30.48,29.79,15,2,22,0.00
2013-11-29,42.1,31.1,20.1,30.7,24.5,19.8,99,77,57,30.72,30.46,9,0,15,0.00
2013-11-30,39.6,32.3,23.9,34.0,27.2,16.9,95,82,71,30.72,30.35,9,1,10,0.00
2013-12-1,52.7,40.6,29.3,41.9,36.6,28.8,99,86,67,30.35,30.02,7,0,10,0.00
2013-12-2,54.3,39.5,29.8,41.5,35.7,29.7,99,88,53,30.02,29.88,3,0,5,0.00
2013-12-3,55.2,41.6,31.5,46.0,39.4,31.3,99,93,71,30.01,29.86,6,0,7,0.00
2013-12-4,53.8,42.7,30.6,50.4,41.3,30.2,99,95,79,30.12,30.00,3,0,5,0.00
2013-12-5,64.6,54.5,46.4,61.2,54.1,46.2,99,98,89,30.11,29.95,8,1,10,0.00
2013-12-6,62.4,49.9,38.5,62.2,49.7,38.3,99,99,99,30.12,29.88,11,1,12,0.77
2013-12-7,42.4,35.7,28.0,38.3,32.8,23.4,99,89,76,30.51,30.07,11,1,15,0.17
2013-12-8,33.8,29.1,23.4,33.4,25.7,18.0,99,88,73,30.58,30.32,6,0,7,0.00
2013-12-9,41.7,37.1,33.3,41.5,36.9,33.1,99,99,99,30.32,29.97,8,1,12,1.13
2013-12-10,34.3,31.4,25.5,34.2,31.2,24.3,99,99,95,30.16,29.85,7,0,10,0.00
2013-12-11,34.2,26.3,18.3,26.1,21.7,15.4,99,83,63,30.37,30.16,9,0,12,0.00
2013-12-12,29.3,22.0,17.2,20.5,12.7,6.4,98,69,44,30.37,30.19,12,1,17,0.00
2013-12-13,37.2,25.5,10.4,21.7,16.5,7.3,89,70,50,30.37,30.15,11,1,15,0.00
2013-12-14,33.1,29.3,24.4,32.7,26.5,20.3,99,89,81,30.47,30.35,12,1,15,0.00